Date_and_time,latitude,longitude,wind_speed,RelWindDirFrom,WindDirFrom,air_pressure,air_temperature,relative_humidity,Temp,platform_speed_wrt_ground,air_pressure_at_mean_sea_level,platform_orientation
2019-05-16 23:40,50.63045,-96.980775,14.7,17.9,48,989.66,5.1,76,8.58,0.0,1017.02,162.5
2019-05-16 23:50,50.6304483333333,-96.9807766666667,14.3,16.4,44,989.75,5.2,76,8.58,0.0,1017.10,162.5
2019-05-17 00:00,50.6304483333333,-96.9807766666667,12.5,15.3,47,989.88,5.2,75,8.58,0.0,1017.23,327.5
2019-05-17 00:10,50.6304466666667,-96.9807766666667,11.1,12.7,43,989.95,5.3,76,8.57,0.0,1017.31,327.5
2019-05-17 00:20,50.6304466666667,-96.9807766666667,9.5,11.9,51,990.05,5.4,76,8.60,0.0,1017.40,327.5
2019-05-17 00:30,50.6304466666667,-96.980775,7.5,9.1,49,990.03,5.7,75,8.62,0.0,1017.37,327.5
2019-05-17 00:40,50.6304466666667,-96.980775,7.5,9.8,47,989.93,6.0,75,8.61,0.0,1017.27,327.5
2019-05-17 00:50,50.630445,-96.9807616666667,7.3,8.9,51,989.98,6.1,76,8.60,0.0,1017.34,327.5
2019-05-17 01:00,50.6304516666667,-96.9807866666667,6.5,8.0,51,990.08,6.1,75,8.61,0.0,1017.45,270.0
2019-05-17 01:10,50.6304466666667,-96.980755,5.1,7.1,53,990.14,6.2,76,8.61,0.0,1017.51,270.0
2019-05-17 01:20,50.6304466666667,-96.980765,6.2,8.9,54,990.15,6.3,79,8.61,0.0,1017.50,270.0
2019-05-17 01:30,50.6304466666667,-96.9807716666667,8.9,11.2,58,990.14,5.9,83,8.61,0.0,1017.51,270.0
2019-05-17 01:40,50.6304466666667,-96.9807716666667,10.0,15.3,38,990.11,5.7,86,8.60,0.0,1017.49,270.0
2019-05-17 01:50,50.6304466666667,-96.9807766666667,15.5,21.9,26,989.89,5.9,80,8.59,0.0,1017.25,270.0
2019-05-17 02:00,50.6304466666667,-96.9807783333333,17.4,20.9,7,989.84,6.3,72,8.58,0.0,1017.17,299.2
2019-05-17 02:10,50.630445,-96.9807616666667,17.2,22.0,0,989.88,6.6,62,8.60,0.0,1017.19,299.2
2019-05-17 02:20,50.6304366666667,-96.9807566666667,13.3,19.1,357,990.13,6.5,62,8.60,0.0,1017.44,299.2
2019-05-17 02:30,50.630445,-96.9807666666667,11.7,16.6,349,990.31,6.4,60,8.58,0.0,1017.62,299.2
2019-05-17 02:40,50.630445,-96.9807666666667,11.9,16.1,349,990.38,6.3,60,8.55,0.0,1017.68,299.2
2019-05-17 02:50,50.6304433333333,-96.9807683333333,11.4,15.3,346,990.38,6.3,59,8.51,0.0,1017.68,299.2
2019-05-17 03:00,50.6304433333333,-96.9807716666667,8.9,13.1,344,990.47,6.2,57,8.47,0.0,1017.78,360.0
2019-05-17 03:10,50.630445,-96.9807733333333,7.8,11.8,350,990.53,6.0,59,8.44,0.0,1017.84,360.0
2019-05-17 03:20,50.6304433333333,-96.9807733333333,8.1,10.7,354,990.52,6.0,60,8.42,0.0,1017.85,360.0
2019-05-17 03:30,50.63042,-96.98076,7.7,10.2,357,990.46,5.9,60,8.41,0.0,1017.81,360.0
2019-05-17 03:40,50.6304466666667,-96.980775,6.8,9.2,349,990.49,5.8,62,8.40,0.0,1017.84,360.0
2019-05-17 03:50,50.630455,-96.9807766666667,6.2,8.9,343,990.54,5.6,62,8.40,0.0,1017.87,360.0
2019-05-17 04:00,50.6304383333333,-96.98077,5.6,7.3,338,990.51,5.5,62,8.40,0.0,1017.84,122.3
2019-05-17 04:10,50.6304416666667,-96.9807766666667,5.0,6.9,335,990.53,5.3,61,8.41,0.0,1017.87,122.3
2019-05-17 04:20,50.6304416666667,-96.9807816666667,4.8,6.6,337,990.53,5.1,62,8.42,0.0,1017.89,122.3
2019-05-17 04:30,50.6304433333333,-96.9807783333333,4.3,5.6,333,990.56,4.9,62,8.42,0.0,1017.93,122.3
2019-05-17 04:40,50.6304383333333,-96.9808016666667,3.9,5.6,334,990.54,4.6,62,8.42,0.0,1017.92,122.3
2019-05-17 04:50,50.6304466666667,-96.98077,2.8,4.2,331,990.55,4.5,62,8.42,0.0,1017.95,122.3
2019-05-17 05:00,50.6304533333333,-96.9807733333333,2.4,3.3,333,990.54,4.4,60,8.41,0.0,1017.95,60.8
2019-05-17 05:10,50.6304433333333,-96.9807816666667,2.7,3.5,325,990.61,4.4,61,8.41,0.0,1018.02,60.8
2019-05-17 05:20,50.6304416666667,-96.9807733333333,2.8,3.9,325,990.65,4.4,61,8.41,0.0,1018.07,60.8
2019-05-17 05:30,50.6304433333333,-96.9807766666667,1.7,3.2,319,990.64,4.2,64,8.41,0.0,1018.07,60.8
2019-05-17 05:40,50.6304433333333,-96.980765,1.7,2.8,265,990.69,3.4,67,8.40,0.0,1018.17,60.8
2019-05-17 05:50,50.630445,-96.9807666666667,2.1,4.6,260,990.72,2.6,70,8.40,0.0,1018.25,60.8
2019-05-17 06:00,50.6304483333333,-96.9807683333333,3.6,5.2,265,990.77,2.2,70,8.40,0.0,1018.33,12.6
2019-05-17 06:10,50.63045,-96.9807683333333,5.1,6.1,270,990.82,2.1,69,8.41,0.0,1018.40,12.6
2019-05-17 06:20,50.63045,-96.9807666666667,5.7,6.5,274,990.82,2.1,68,8.43,0.0,1018.41,12.6
2019-05-17 06:30,50.63045,-96.980765,4.8,6.0,279,990.85,2.0,69,8.43,0.0,1018.46,12.6
2019-05-17 06:40,50.6304483333333,-96.980765,5.4,6.8,271,990.88,1.7,70,8.44,0.0,1018.51,12.6
2019-05-17 06:50,50.6304483333333,-96.980765,4.9,6.2,268,990.80,1.6,71,8.44,0.0,1018.44,12.6
2019-05-17 07:00,50.6304483333333,-96.9807666666667,4.9,6.5,268,990.75,1.7,72,8.45,0.0,1018.39,38.0
2019-05-17 07:10,50.6304483333333,-96.9807666666667,5.7,7.1,276,990.61,1.4,72,8.45,0.0,1018.25,38.0
2019-05-17 07:20,50.6304483333333,-96.9807666666667,6.0,7.0,276,990.52,1.2,72,8.46,0.0,1018.17,38.0
2019-05-17 07:30,50.6304483333333,-96.9807666666667,5.6,6.7,269,990.47,1.5,70,8.46,0.0,1018.16,38.0
2019-05-17 07:40,50.63046,-96.9807766666667,6.0,6.9,277,990.44,1.5,70,8.46,0.0,1018.16,38.0
2019-05-17 07:50,50.63045,-96.9807583333333,6.2,6.9,283,990.40,1.6,69,8.46,0.0,1018.14,38.0
2019-05-17 08:00,50.63044,-96.980765,4.8,6.2,294,990.42,1.8,69,8.45,0.0,1018.16,138.7
2019-05-17 08:10,50.6304483333333,-96.9807683333333,4.3,5.0,293,990.45,2.2,67,8.45,0.0,1018.17,138.7
2019-05-17 08:20,50.6304483333333,-96.98077,4.9,6.1,281,990.51,1.7,70,8.44,0.0,1018.26,138.7
2019-05-17 08:30,50.6304483333333,-96.98077,3.8,6.1,277,990.62,1.7,72,8.44,0.0,1018.38,138.7
2019-05-17 08:40,50.6304483333333,-96.9807666666667,1.6,3.1,257,990.66,1.7,73,8.43,0.0,1018.43,138.7
2019-05-17 08:50,50.6304266666667,-96.9807566666667,1.5,3.3,250,990.71,1.7,73,8.43,0.0,1018.49,138.7
2019-05-17 09:00,50.630475,-96.9807566666667,2.5,3.8,269,990.73,1.7,72,8.42,0.0,1018.51,13.3
2019-05-17 09:10,50.6304533333333,-96.9807483333333,2.8,4.6,259,990.79,1.1,77,8.42,0.0,1018.61,13.3
2019-05-17 09:20,50.6304533333333,-96.9807566666667,4.5,6.0,258,990.87,0.6,77,8.41,0.0,1018.71,13.3
2019-05-17 09:30,50.6304516666667,-96.9807566666667,4.9,6.2,255,990.98,0.6,76,8.41,0.0,1018.82,13.3
2019-05-17 09:40,50.6304533333333,-96.98076,5.2,6.7,265,990.99,0.6,77,8.41,0.0,1018.83,13.3
2019-05-17 09:50,50.6304516666667,-96.9807583333333,6.2,7.5,275,990.85,0.4,76,8.40,0.0,1018.68,13.3
2019-05-17 10:00,50.630445,-96.9807583333333,5.9,6.9,287,990.71,0.3,77,8.39,0.0,1018.53,167.4
2019-05-17 10:10,50.6304516666667,-96.9807616666667,5.8,7.4,278,990.86,0.5,77,8.39,0.0,1018.69,167.4
2019-05-17 10:20,50.6304516666667,-96.9807633333333,6.0,7.5,270,990.90,0.4,79,8.37,0.0,1018.74,167.4
2019-05-17 10:30,50.6304516666667,-96.9807633333333,4.9,6.5,252,991.08,0.0,81,8.36,0.0,1018.94,167.4
2019-05-17 10:40,50.6304516666667,-96.98076,5.3,7.3,264,991.03,0.2,82,8.36,0.0,1018.89,167.4
2019-05-17 10:50,50.6304533333333,-96.9807616666667,5.8,8.3,270,990.94,0.4,81,8.35,0.0,1018.79,167.4
2019-05-17 11:00,50.6304533333333,-96.9807616666667,4.6,6.8,256,991.03,0.6,80,8.32,0.0,1018.89,41.3
2019-05-17 11:10,50.6304533333333,-96.9807633333333,5.1,6.9,242,991.04,0.4,81,8.29,0.0,1018.94,41.3
2019-05-17 11:20,50.630455,-96.9807633333333,5.7,7.6,242,991.06,0.4,80,8.28,0.0,1018.96,41.3
2019-05-17 11:30,50.630455,-96.9807633333333,5.9,7.8,242,991.05,0.6,80,8.27,0.0,1018.94,41.3
2019-05-17 11:40,50.630455,-96.980765,5.7,7.5,243,991.06,1.1,77,8.26,0.0,1018.94,41.3
2019-05-17 11:50,50.63046,-96.98077,6.2,8.4,246,991.14,1.5,77,8.25,0.0,1019.00,41.3
2019-05-17 12:00,50.63046,-96.9807716666667,5.0,7.0,240,991.13,1.9,78,8.24,0.0,1018.96,212.5
2019-05-17 12:10,50.6304566666667,-96.98077,5.2,6.4,242,991.07,2.4,76,8.23,0.0,1018.88,212.5
2019-05-17 12:20,50.630455,-96.9807716666667,4.8,6.2,256,991.19,3.0,75,8.21,0.0,1018.99,212.5
2019-05-17 12:30,50.630455,-96.9807733333333,5.5,7.6,254,991.29,3.3,74,8.21,0.0,1019.07,212.5
2019-05-17 12:40,50.630455,-96.9807716666667,5.3,6.9,248,991.44,3.5,75,8.21,0.0,1019.20,212.5
2019-05-17 12:50,50.630455,-96.9807716666667,5.0,6.9,247,991.47,3.9,74,8.21,0.0,1019.20,212.5
2019-05-17 13:00,50.6304533333333,-96.980775,4.8,7.1,231,991.53,4.5,70,8.20,0.0,1019.25,323.4
2019-05-17 13:10,50.63045,-96.9807616666667,5.3,6.9,230,991.53,5.0,66,8.20,0.0,1019.22,323.4
2019-05-17 13:20,50.630445,-96.9807566666667,5.8,7.9,224,991.63,5.5,64,8.20,0.0,1019.29,323.4
2019-05-17 13:30,50.6304483333333,-96.9807583333333,6.6,9.6,221,991.68,5.8,63,8.21,0.0,1019.30,323.4
2019-05-17 13:40,50.630425,-96.980765,7.6,10.5,223,991.75,6.2,62,8.21,0.0,1019.33,323.4
2019-05-17 13:50,50.630455,-96.980765,8.4,10.7,217,991.72,6.5,61,8.22,0.0,1019.26,323.4
2019-05-17 14:00,50.6304383333333,-96.9807483333333,8.1,10.2,215,991.70,6.7,59,8.22,0.0,1019.21,138.7
2019-05-17 14:10,50.6304466666667,-96.9807383333333,7.3,11.4,211,991.70,7.1,58,8.23,0.0,1019.16,138.7
2019-05-17 14:20,50.630445,-96.9807533333333,7.0,9.9,214,991.70,7.3,56,8.25,0.0,1019.14,138.7
2019-05-17 14:30,50.6304483333333,-96.9807766666667,6.1,9.7,216,991.57,7.7,54,8.26,0.0,1018.97,138.7
2019-05-17 14:40,50.6304233333333,-96.9807483333333,6.2,9.4,220,991.50,8.1,53,8.28,0.0,1018.86,138.7
2019-05-17 14:50,50.6304433333333,-96.9807666666667,6.8,11.5,229,991.35,8.5,51,8.29,0.0,1018.66,138.7
2019-05-17 15:00,50.6304466666667,-96.980765,5.0,8.9,233,991.27,9.0,49,8.33,0.0,1018.53,165.5
2019-05-17 15:10,50.6304466666667,-96.9807633333333,5.7,9.6,261,991.27,9.6,48,8.41,0.0,1018.47,165.5
2019-05-17 15:20,50.6304533333333,-96.9807633333333,3.7,11.4,242,991.28,9.7,48,8.45,0.0,1018.46,165.5
2019-05-17 15:30,50.6304516666667,-96.98077,2.9,9.6,241,991.20,9.9,48,8.46,0.0,1018.35,165.5
2019-05-17 15:40,50.6304566666667,-96.98076,3.4,8.3,273,991.12,10.3,47,8.50,0.0,1018.23,165.5
2019-05-17 15:50,50.63045,-96.9807716666667,4.8,9.1,272,991.06,10.6,46,8.54,0.0,1018.14,165.5
2019-05-17 16:00,50.630455,-96.980765,1.5,9.6,39,991.02,11.1,52,8.64,0.0,1018.06,90.0
2019-05-17 16:10,50.630455,-96.9807633333333,4.8,8.8,77,990.91,10.6,55,8.79,0.0,1017.96,90.0
2019-05-17 16:20,50.6304533333333,-96.9807666666667,3.6,7.1,117,990.93,10.7,55,8.85,0.0,1017.96,90.0
2019-05-17 16:30,50.630455,-96.9807666666667,5.6,8.2,93,990.82,11.4,52,8.82,0.0,1017.79,90.0
2019-05-17 16:40,50.630455,-96.9807633333333,5.5,8.9,90,990.80,11.3,51,8.74,0.0,1017.75,90.0
2019-05-17 16:50,50.630455,-96.9807616666667,5.5,7.8,90,990.68,11.7,48,8.68,0.0,1017.59,90.0
2019-05-17 17:00,50.630455,-96.98076,7.2,9.9,84,990.72,11.5,58,8.64,0.0,1017.61,318.7
2019-05-17 17:10,50.630455,-96.9807616666667,8.5,10.9,83,990.67,10.2,65,8.57,0.0,1017.62,318.7
2019-05-17 17:20,50.63045,-96.9807783333333,7.6,9.4,89,990.61,10.4,62,8.50,0.0,1017.54,318.7
2019-05-17 17:30,50.6304466666667,-96.980775,7.8,10.1,90,990.61,10.6,63,8.49,0.0,1017.50,318.7
2019-05-17 17:40,50.6304483333333,-96.9807733333333,7.9,10.1,86,990.64,10.4,66,8.50,0.0,1017.53,318.7
2019-05-17 17:50,50.63045,-96.9807583333333,7.4,9.3,80,990.73,10.0,69,8.48,0.0,1017.62,318.7
2019-05-17 18:00,50.6304516666667,-96.9807616666667,7.0,8.5,82,990.77,10.0,69,8.46,0.0,1017.69,12.6
2019-05-17 18:10,50.6304233333333,-96.9807716666667,6.8,8.1,85,990.78,10.3,68,8.52,0.0,1017.68,12.6
2019-05-17 18:20,50.6304516666667,-96.98077,7.0,8.6,79,990.77,10.2,68,8.65,0.0,1017.64,12.6
2019-05-17 18:30,50.6304466666667,-96.9807683333333,7.8,8.6,74,990.80,9.9,70,8.62,0.0,1017.69,12.6
2019-05-17 18:40,50.6304466666667,-96.98077,7.4,8.5,71,990.82,9.8,72,8.51,0.0,1017.69,12.6
2019-05-17 18:50,50.630445,-96.9807683333333,7.7,8.7,69,990.80,9.6,72,8.46,0.0,1017.69,12.6
2019-05-17 19:00,50.6304466666667,-96.98077,8.0,9.0,67,990.76,9.6,72,8.46,0.0,1017.72,142.0
2019-05-17 19:10,50.630445,-96.98077,8.2,9.2,57,990.80,9.1,76,8.45,0.0,1017.77,142.0
2019-05-17 19:20,50.6304466666667,-96.98077,8.8,10.4,51,990.83,8.8,74,8.55,0.0,1017.80,142.0
2019-05-17 19:30,50.6304466666667,-96.98077,9.3,10.6,50,990.85,8.8,72,8.55,0.0,1017.84,142.0
2019-05-17 19:40,50.6304466666667,-96.98077,8.9,10.8,50,990.90,8.6,75,8.56,0.0,1017.91,142.0
2019-05-17 19:50,50.6304483333333,-96.98077,10.2,11.4,50,990.91,8.6,70,8.48,0.0,1017.92,142.0
2019-05-17 20:00,50.6304483333333,-96.98077,9.5,11.0,54,990.93,8.6,70,8.41,0.0,1017.94,228.3
2019-05-17 20:10,50.6304483333333,-96.98077,8.6,10.7,55,990.99,8.5,71,8.46,0.0,1018.00,228.3
2019-05-17 20:20,50.6304483333333,-96.98077,9.4,11.3,58,990.97,8.6,68,8.67,0.0,1017.99,228.3
2019-05-17 20:30,50.63045,-96.98077,9.2,11.2,61,990.95,8.7,67,8.59,0.0,1017.98,228.3
2019-05-17 20:40,50.6304633333333,-96.980785,11.5,13.7,56,990.87,8.7,64,8.45,0.0,1017.90,228.3
2019-05-17 20:50,50.6304533333333,-96.980745,11.3,12.9,51,990.90,8.5,65,8.38,0.0,1017.94,228.3
2019-05-17 21:00,50.6304433333333,-96.9807416666667,12.3,15.0,48,990.85,8.3,69,8.40,0.0,1017.92,167.4
2019-05-17 21:10,50.630445,-96.980755,14.3,16.2,47,990.76,8.2,70,8.41,0.0,1017.86,167.4
2019-05-17 21:20,50.630445,-96.98076,14.5,16.5,49,990.69,8.1,70,8.45,0.0,1017.78,167.4
2019-05-17 21:30,50.6304466666667,-96.9807616666667,14.1,16.7,49,990.63,8.0,71,8.50,0.0,1017.74,167.4
2019-05-17 21:40,50.63046,-96.9807683333333,13.0,16.0,47,990.66,8.0,72,8.56,0.0,1017.77,167.4
2019-05-17 21:50,50.630455,-96.9807683333333,14.3,16.2,40,990.56,7.9,73,8.60,0.0,1017.67,167.4
2019-05-17 22:00,50.63044,-96.9807783333333,15.5,17.9,38,990.44,7.9,71,8.63,0.0,1017.56,248.5
2019-05-17 22:10,50.6304783333333,-96.980815,17.3,19.2,35,990.40,8.2,66,8.63,0.0,1017.49,248.5
2019-05-17 22:20,50.6304566666667,-96.9807833333333,16.2,18.6,45,990.49,8.3,65,8.63,0.0,1017.57,248.5
2019-05-17 22:30,50.6304483333333,-96.98077,15.0,17.3,54,990.56,8.3,65,8.60,0.0,1017.65,248.5
2019-05-17 22:40,50.630455,-96.9807533333333,12.1,16.6,47,990.60,8.2,68,8.58,0.0,1017.70,248.5
2019-05-17 22:50,50.630465,-96.9807683333333,16.3,19.2,27,990.30,8.3,66,8.57,0.0,1017.40,248.5
2019-05-17 23:00,50.6304483333333,-96.980785,17.2,20.8,22,990.23,8.2,67,8.59,0.0,1017.34,270.0
2019-05-17 23:10,50.630455,-96.9807733333333,17.6,20.5,22,990.13,8.2,67,8.63,0.0,1017.24,270.0
2019-05-17 23:20,50.630455,-96.9807766666667,15.6,18.9,27,990.27,8.1,68,8.66,0.0,1017.39,270.0
2019-05-17 23:30,50.630455,-96.980775,16.0,18.6,26,990.35,8.1,67,8.79,0.0,1017.47,270.0
2019-05-17 23:40,50.6304533333333,-96.980775,16.0,18.1,25,990.43,8.2,66,8.99,0.0,1017.55,270.0
2019-05-17 23:50,50.630455,-96.980775,18.5,20.9,22,990.38,8.6,62,9.11,0.0,1017.48,270.0
